TimeAKDT,TemperatureF,Dew PointF,Humidity,Sea Level PressureIn,VisibilityMPH,Wind Direction,Wind SpeedMPH,Gust SpeedMPH,PrecipitationIn,Events,Conditions,WindDirDegrees,DateUTC
12:23 AM,30.2,30.2,100,30.40,2.0,ENE,4.6,-,N/A,,Overcast,70,2012-10-20 08:23:00
12:53 AM,30.0,30.0,100,30.41,1.5,ENE,3.5,-,N/A,,Overcast,70,2012-10-20 08:53:00
1:15 AM,30.2,30.2,100,30.41,2.0,East,3.5,-,N/A,,Overcast,80,2012-10-20 09:15:00
1:24 AM,30.2,30.2,100,30.41,1.5,ENE,4.6,-,N/A,,Overcast,70,2012-10-20 09:24:00
1:53 AM,30.0,30.0,100,30.42,1.0,East,4.6,-,N/A,,Mist,80,2012-10-20 09:53:00
2:02 AM,30.2,30.2,100,30.42,0.8,East,4.6,-,N/A,,Mist,80,2012-10-20 10:02:00
2:53 AM,30.0,30.0,100,30.43,0.5,ENE,5.8,-,N/A,Fog,Light Freezing Fog,70,2012-10-20 10:53:00
3:18 AM,30.2,30.2,100,30.43,0.5,East,3.5,-,N/A,Fog,Light Freezing Fog,90,2012-10-20 11:18:00
3:36 AM,30.2,30.2,100,30.44,0.8,ENE,3.5,-,N/A,,Mist,70,2012-10-20 11:36:00
3:51 AM,30.2,30.2,100,30.44,0.5,East,3.5,-,N/A,Fog,Light Freezing Fog,80,2012-10-20 11:51:00
3:53 AM,30.0,30.0,100,30.44,0.5,ENE,3.5,-,N/A,Fog,Light Freezing Fog,70,2012-10-20 11:53:00
4:07 AM,30.2,30.2,100,30.44,0.5,ENE,3.5,-,N/A,Fog,Light Freezing Fog,70,2012-10-20 12:07:00
4:29 AM,30.2,30.2,100,30.44,0.5,Calm,Calm,-,N/A,Fog,Light Freezing Fog,0,2012-10-20 12:29:00
4:53 AM,30.0,30.0,100,30.45,0.5,Calm,Calm,-,N/A,Fog,Light Freezing Fog,0,2012-10-20 12:53:00
5:07 AM,30.2,30.2,100,30.44,0.5,ENE,3.5,-,N/A,Fog,Light Freezing Fog,70,2012-10-20 13:07:00
5:23 AM,30.2,30.2,100,30.45,1.0,Calm,Calm,-,N/A,,Mist,0,2012-10-20 13:23:00
5:28 AM,30.2,30.2,100,30.45,3.0,Calm,Calm,-,N/A,,Overcast,0,2012-10-20 13:28:00
5:53 AM,30.0,30.0,100,30.45,10.0,Calm,Calm,-,N/A,,Overcast,0,2012-10-20 13:53:00
6:44 AM,30.2,30.2,100,30.46,10.0,East,4.6,-,N/A,,Overcast,90,2012-10-20 14:44:00
6:53 AM,30.0,30.0,100,30.45,10.0,East,4.6,-,N/A,,Overcast,90,2012-10-20 14:53:00
7:53 AM,30.0,30.0,100,30.47,10.0,East,5.8,-,N/A,,Overcast,90,2012-10-20 15:53:00
8:53 AM,30.0,30.0,100,30.47,10.0,East,5.8,-,N/A,,Overcast,80,2012-10-20 16:53:00
9:21 AM,30.2,30.2,100,30.46,0.8,ENE,6.9,-,N/A,,Mist,70,2012-10-20 17:21:00
9:33 AM,30.2,30.2,100,30.46,0.5,ENE,9.2,-,N/A,Fog,Light Freezing Fog,70,2012-10-20 17:33:00
9:53 AM,30.9,30.9,100,30.45,0.2,ENE,9.2,-,N/A,Fog,Light Freezing Fog,70,2012-10-20 17:53:00
10:00 AM,30.2,30.2,100,30.46,0.2,East,8.1,-,N/A,Fog,Light Freezing Fog,80,2012-10-20 18:00:00
10:11 AM,30.2,30.2,100,30.46,0.5,East,8.1,-,N/A,Fog,Light Freezing Fog,80,2012-10-20 18:11:00
10:20 AM,30.2,30.2,100,30.45,1.0,East,9.2,-,N/A,,Overcast,80,2012-10-20 18:20:00
10:49 AM,30.2,30.2,100,30.46,0.5,East,8.1,-,N/A,Fog,Light Freezing Fog,80,2012-10-20 18:49:00
10:53 AM,30.9,30.9,100,30.47,0.5,East,8.1,-,N/A,Fog,Light Freezing Fog,80,2012-10-20 18:53:00
11:23 AM,30.2,30.2,100,30.47,0.8,East,6.9,-,N/A,,Mist,80,2012-10-20 19:23:00
11:53 AM,30.9,30.9,100,30.47,0.8,East,9.2,-,N/A,,Mist,80,2012-10-20 19:53:00
12:09 PM,30.2,30.2,100,30.46,0.2,East,10.4,-,N/A,Fog,Light Freezing Fog,90,2012-10-20 20:09:00
12:53 PM,32.0,32.0,100,30.47,0.2,East,10.4,-,N/A,Fog,Fog,80,2012-10-20 20:53:00
1:53 PM,32.0,32.0,100,30.47,0.2,East,9.2,-,N/A,Fog,Fog,90,2012-10-20 21:53:00
2:53 PM,32.0,32.0,100,30.46,0.2,East,8.1,-,N/A,Fog,Fog,100,2012-10-20 22:53:00
3:13 PM,33.8,33.8,100,30.46,1.0,East,8.1,-,N/A,,Mist,80,2012-10-20 23:13:00
3:53 PM,33.1,33.1,100,30.46,1.5,East,6.9,-,N/A,,Overcast,90,2012-10-20 23:53:00
4:00 PM,33.8,33.8,100,30.45,10.0,East,9.2,-,N/A,,Overcast,90,2012-10-21 00:00:00
4:53 PM,34.0,33.1,96,30.45,8.0,East,9.2,-,N/A,,Overcast,100,2012-10-21 00:53:00
5:53 PM,34.0,30.0,85,30.44,10.0,SE,9.2,-,N/A,,Overcast,140,2012-10-21 01:53:00
6:53 PM,34.0,32.0,92,30.43,10.0,SE,12.7,-,N/A,,Overcast,140,2012-10-21 02:53:00
7:53 PM,33.1,32.0,96,30.42,10.0,SE,10.4,-,N/A,,Overcast,140,2012-10-21 03:53:00
8:53 PM,33.1,33.1,100,30.41,10.0,SSE,10.4,-,N/A,,Overcast,150,2012-10-21 04:53:00
9:09 PM,33.8,33.8,100,30.41,10.0,SSE,10.4,-,N/A,,Overcast,150,2012-10-21 05:09:00
9:53 PM,33.1,33.1,100,30.40,10.0,SE,10.4,-,N/A,,Overcast,140,2012-10-21 05:53:00
10:53 PM,33.1,33.1,100,30.40,10.0,SSE,11.5,-,N/A,,Overcast,150,2012-10-21 06:53:00
11:53 PM,34.0,30.9,89,30.39,10.0,SSE,12.7,-,N/A,,Overcast,150,2012-10-21 07:53:00